Time,TemperatureF,DewpointF,PressureIn,WindDirection,WindDirectionDegrees,WindSpeedMPH,WindSpeedGustMPH,Humidity,HourlyPrecipIn,Conditions,Clouds,dailyrainin,SoftwareType,DateUTC
2013-01-02 00:00:00,56.9,55.2,30.00,WSW,248,3.5,0.0,94,0.00,CLR,,0.00,WeatherDisplay:10.37,2013-01-02 05:00:00,
2013-01-02 00:01:00,56.9,55.2,30.00,WSW,243,3.5,3.5,94,0.00,CLR,,0.00,WeatherDisplay:10.37,2013-01-02 05:01:00,
2013-01-02 00:02:00,56.9,55.2,29.99,WSW,243,0.0,0.0,94,0.00,CLR,,0.00,WeatherDisplay:10.37,2013-01-02 05:02:00,
2013-01-02 00:07:00,57.0,55.3,29.99,WSW,243,0.0,0.0,94,0.00,CLR,,0.00,WeatherDisplay:10.37,2013-01-02 05:07:00,
2013-01-02 00:12:00,57.0,55.3,29.99,WSW,243,0.0,0.0,94,0.00,CLR,,0.00,WeatherDisplay:10.37,2013-01-02 05:12:00,
2013-01-02 00:17:00,57.0,55.3,29.99,WSW,243,2.3,2.3,94,0.00,CLR,,0.00,WeatherDisplay:10.37,2013-01-02 05:17:00,
2013-01-02 00:22:00,57.1,55.4,29.99,WSW,242,3.5,0.0,94,0.00,CLR,,0.00,WeatherDisplay:10.37,2013-01-02 05:22:00,
2013-01-02 00:27:00,57.2,55.5,29.99,WSW,239,0.0,0.0,94,0.00,CLR,,0.00,WeatherDisplay:10.37,2013-01-02 05:27:00,
2013-01-02 00:32:00,57.3,55.6,29.99,WSW,240,2.0,2.0,94,0.00,CLR,,0.00,WeatherDisplay:10.37,2013-01-02 05:32:00,
2013-01-02 00:37:00,57.4,55.7,29.99,WSW,240,0.0,0.0,94,0.00,CLR,,0.00,WeatherDisplay:10.37,2013-01-02 05:37:00,
2013-01-02 00:42:00,57.4,55.7,29.99,WSW,240,0.0,0.0,94,0.00,CLR,,0.00,WeatherDisplay:10.37,2013-01-02 05:42:00,
2013-01-02 00:47:00,57.4,55.7,29.98,WSW,240,1.1,1.1,94,0.00,CLR,,0.00,WeatherDisplay:10.37,2013-01-02 05:47:00,
2013-01-02 00:52:00,57.4,55.7,29.98,WSW,240,0.0,0.0,94,0.00,CLR,,0.00,WeatherDisplay:10.37,2013-01-02 05:52:00,
2013-01-02 00:57:00,57.3,55.6,29.98,WSW,240,0.0,0.0,94,0.00,CLR,,0.00,WeatherDisplay:10.37,2013-01-02 05:57:00,
2013-01-02 01:02:00,57.3,55.6,29.98,WSW,240,0.0,0.0,94,0.00,CLR,,0.00,WeatherDisplay:10.37,2013-01-02 06:02:00,
2013-01-02 01:07:00,57.2,55.5,29.98,WSW,240,0.0,0.0,94,0.00,CLR,,0.00,WeatherDisplay:10.37,2013-01-02 06:07:00,
2013-01-02 01:12:00,57.2,55.5,29.98,WSW,240,0.0,0.0,94,0.00,CLR,,0.00,WeatherDisplay:10.37,2013-01-02 06:12:00,
2013-01-02 01:17:00,57.1,55.4,29.97,WSW,240,0.0,0.0,94,0.00,CLR,,0.00,WeatherDisplay:10.37,2013-01-02 06:17:00,
2013-01-02 01:22:00,57.1,55.4,29.97,WSW,240,0.0,0.0,94,0.00,CLR,,0.00,WeatherDisplay:10.37,2013-01-02 06:22:00,
2013-01-02 01:27:00,56.9,55.2,29.97,WSW,240,0.0,0.0,94,0.00,CLR,,0.00,WeatherDisplay:10.37,2013-01-02 06:27:00,
2013-01-02 01:32:00,56.9,55.2,29.97,WSW,240,0.0,0.0,94,0.00,CLR,,0.00,WeatherDisplay:10.37,2013-01-02 06:32:00,
2013-01-02 01:37:00,56.9,55.2,29.97,WSW,244,0.0,0.0,94,0.00,CLR,,0.00,WeatherDisplay:10.37,2013-01-02 06:37:00,
2013-01-02 01:42:00,56.9,55.2,29.97,WSW,243,0.0,0.0,94,0.00,CLR,,0.00,WeatherDisplay:10.37,2013-01-02 06:42:00,
2013-01-02 01:47:00,56.8,55.1,29.98,WSW,244,0.0,0.0,94,0.00,CLR,,0.00,WeatherDisplay:10.37,2013-01-02 06:47:00,
2013-01-02 01:52:00,56.7,55.0,29.97,WSW,243,0.0,0.0,94,0.00,CLR,,0.00,WeatherDisplay:10.37,2013-01-02 06:52:00,
2013-01-02 01:57:00,56.7,55.3,29.98,WSW,244,0.0,0.0,95,0.00,CLR,,0.00,WeatherDisplay:10.37,2013-01-02 06:57:00,
2013-01-02 02:02:00,56.6,55.2,29.98,WSW,244,1.1,0.0,95,0.00,CLR,,0.00,WeatherDisplay:10.37,2013-01-02 07:02:00,
2013-01-02 02:07:00,56.6,55.2,29.98,SSW,199,3.5,3.5,95,0.00,CLR,,0.00,WeatherDisplay:10.37,2013-01-02 07:07:00,
2013-01-02 02:12:00,56.6,55.2,29.98,SSW,199,0.0,0.0,95,0.00,CLR,,0.00,WeatherDisplay:10.37,2013-01-02 07:12:00,
2013-01-02 02:17:00,56.7,55.3,29.98,SSW,199,0.0,0.0,95,0.00,CLR,,0.00,WeatherDisplay:10.37,2013-01-02 07:17:00,
2013-01-02 02:22:00,56.6,55.2,29.98,SSW,199,0.0,0.0,95,0.00,CLR,,0.00,WeatherDisplay:10.37,2013-01-02 07:22:00,
2013-01-02 02:27:00,56.6,55.2,29.98,SSW,199,0.0,0.0,95,0.00,CLR,,0.00,WeatherDisplay:10.37,2013-01-02 07:27:00,
2013-01-02 02:32:00,56.6,55.2,29.98,SSW,199,0.0,0.0,95,0.00,CLR,,0.00,WeatherDisplay:10.37,2013-01-02 07:32:00,
2013-01-02 02:37:00,56.6,55.2,29.98,SSW,199,0.0,0.0,95,0.00,CLR,,0.00,WeatherDisplay:10.37,2013-01-02 07:37:00,
2013-01-02 02:42:00,56.6,55.2,29.98,SSW,199,0.0,0.0,95,0.00,CLR,,0.00,WeatherDisplay:10.37,2013-01-02 07:42:00,
2013-01-02 02:47:00,56.5,55.1,29.98,SSW,199,0.0,0.0,95,0.00,CLR,,0.00,WeatherDisplay:10.37,2013-01-02 07:47:00,
2013-01-02 02:52:00,56.4,55.0,29.98,SSW,199,0.0,0.0,95,0.00,CLR,,0.00,WeatherDisplay:10.37,2013-01-02 07:52:00,
2013-01-02 02:57:00,56.4,55.0,29.98,SSW,199,0.0,0.0,95,0.00,CLR,,0.00,WeatherDisplay:10.37,2013-01-02 07:57:00,
2013-01-02 03:02:00,56.3,54.9,29.98,SSW,199,0.0,0.0,95,0.00,CLR,,0.00,WeatherDisplay:10.37,2013-01-02 08:02:00,
2013-01-02 03:07:00,56.2,54.8,29.98,SSW,199,0.0,0.0,95,0.00,CLR,,0.00,WeatherDisplay:10.37,2013-01-02 08:07:00,
2013-01-02 03:12:00,56.2,54.8,29.99,SSW,199,0.0,0.0,95,0.00,CLR,,0.00,WeatherDisplay:10.37,2013-01-02 08:12:00,
2013-01-02 03:17:00,56.1,54.7,29.99,SSW,199,0.0,0.0,95,0.00,CLR,,0.00,WeatherDisplay:10.37,2013-01-02 08:17:00,
2013-01-02 03:22:00,56.0,54.6,29.99,SSW,199,0.0,0.0,95,0.00,CLR,,0.00,WeatherDisplay:10.37,2013-01-02 08:22:00,
2013-01-02 03:27:00,56.0,54.6,29.99,SSW,199,0.0,0.0,95,0.00,CLR,,0.00,WeatherDisplay:10.37,2013-01-02 08:27:00,
2013-01-02 03:32:00,55.9,54.5,29.99,SSW,199,0.0,0.0,95,0.00,CLR,,0.00,WeatherDisplay:10.37,2013-01-02 08:32:00,
2013-01-02 03:37:00,55.8,54.4,29.99,SSW,199,0.0,0.0,95,0.00,CLR,,0.00,WeatherDisplay:10.37,2013-01-02 08:37:00,
2013-01-02 03:42:00,55.7,54.3,29.99,SSW,199,0.0,0.0,95,0.00,CLR,,0.00,WeatherDisplay:10.37,2013-01-02 08:42:00,
2013-01-02 03:47:00,55.7,54.6,29.99,SSW,199,0.0,0.0,96,0.00,CLR,,0.00,WeatherDisplay:10.37,2013-01-02 08:47:00,
2013-01-02 03:52:00,55.5,54.1,29.99,SSW,199,0.0,0.0,95,0.00,CLR,,0.00,WeatherDisplay:10.37,2013-01-02 08:52:00,
2013-01-02 03:57:00,55.4,54.3,29.99,SSW,199,0.0,0.0,96,0.00,CLR,,0.00,WeatherDisplay:10.37,2013-01-02 08:57:00,
2013-01-02 04:02:00,55.3,54.2,29.98,SSW,199,0.0,0.0,96,0.00,CLR,,0.00,WeatherDisplay:10.37,2013-01-02 09:02:00,
2013-01-02 04:07:00,55.2,54.1,29.98,SSW,199,0.0,0.0,96,0.00,CLR,,0.00,WeatherDisplay:10.37,2013-01-02 09:07:00,
2013-01-02 04:12:00,55.1,54.0,29.98,SSW,199,0.0,0.0,96,0.00,CLR,,0.00,WeatherDisplay:10.37,2013-01-02 09:12:00,
2013-01-02 04:17:00,55.0,53.9,29.98,SSW,199,0.0,0.0,96,0.00,CLR,,0.00,WeatherDisplay:10.37,2013-01-02 09:17:00,
2013-01-02 04:22:00,54.9,53.8,29.98,SSW,199,0.0,0.0,96,0.00,CLR,,0.00,WeatherDisplay:10.37,2013-01-02 09:22:00,
2013-01-02 04:27:00,54.8,53.7,29.98,SSW,199,0.0,0.0,96,0.00,CLR,,0.00,WeatherDisplay:10.37,2013-01-02 09:27:00,
2013-01-02 04:32:00,54.7,53.6,29.98,SSW,199,0.0,0.0,96,0.00,CLR,,0.00,WeatherDisplay:10.37,2013-01-02 09:32:00,
2013-01-02 04:37:00,54.6,53.5,29.98,SSW,199,0.0,0.0,96,0.00,CLR,,0.00,WeatherDisplay:10.37,2013-01-02 09:37:00,
2013-01-02 04:42:00,54.5,53.4,29.97,SSW,199,0.0,0.0,96,0.00,CLR,,0.00,WeatherDisplay:10.37,2013-01-02 09:42:00,
2013-01-02 04:47:00,54.4,53.3,29.98,SSW,199,0.0,0.0,96,0.00,CLR,,0.00,WeatherDisplay:10.37,2013-01-02 09:47:00,
2013-01-02 04:52:00,54.3,53.2,29.97,SSW,199,0.0,0.0,96,0.00,CLR,,0.00,WeatherDisplay:10.37,2013-01-02 09:52:00,
2013-01-02 04:57:00,54.2,53.1,29.97,SSW,199,0.0,0.0,96,0.00,CLR,,0.00,WeatherDisplay:10.37,2013-01-02 09:57:00,
2013-01-02 05:02:00,54.2,53.1,29.97,SSW,199,0.0,0.0,96,0.00,CLR,,0.00,WeatherDisplay:10.37,2013-01-02 10:02:00,
2013-01-02 05:07:00,54.2,53.1,29.98,SSW,199,0.0,0.0,96,0.00,CLR,,0.00,WeatherDisplay:10.37,2013-01-02 10:07:00,
2013-01-02 05:12:00,54.3,53.5,29.98,SSW,199,0.0,0.0,97,0.00,CLR,,0.00,WeatherDisplay:10.37,2013-01-02 10:12:00,
2013-01-02 05:17:00,54.4,53.6,29.98,SSW,199,0.0,0.0,97,0.00,CLR,,0.00,WeatherDisplay:10.37,2013-01-02 10:17:00,
2013-01-02 05:22:00,54.5,53.7,29.98,SSW,199,0.0,0.0,97,0.00,CLR,,0.00,WeatherDisplay:10.37,2013-01-02 10:22:00,
2013-01-02 05:27:00,54.7,53.9,29.98,SSW,199,0.0,0.0,97,0.00,CLR,,0.00,WeatherDisplay:10.37,2013-01-02 10:27:00,
2013-01-02 05:32:00,54.8,54.0,29.98,SSW,199,0.0,0.0,97,0.00,CLR,,0.00,WeatherDisplay:10.37,2013-01-02 10:32:00,
2013-01-02 05:37:00,54.8,54.0,29.98,SSW,199,0.0,0.0,97,0.00,CLR,,0.00,WeatherDisplay:10.37,2013-01-02 10:37:00,
2013-01-02 05:42:00,54.8,54.0,29.97,SSW,199,0.0,0.0,97,0.00,CLR,,0.00,WeatherDisplay:10.37,2013-01-02 10:42:00,
2013-01-02 05:47:00,54.7,53.9,29.97,SSW,199,0.0,0.0,97,0.00,CLR,,0.00,WeatherDisplay:10.37,2013-01-02 10:47:00,
2013-01-02 05:52:00,54.7,53.9,29.97,SSW,199,0.0,0.0,97,0.00,CLR,,0.00,WeatherDisplay:10.37,2013-01-02 10:52:00,
2013-01-02 05:57:00,54.7,53.9,29.98,SSW,199,0.0,0.0,97,0.00,CLR,,0.00,WeatherDisplay:10.37,2013-01-02 10:57:00,
2013-01-02 06:02:00,54.8,54.0,29.97,SSW,199,0.0,0.0,97,0.00,CLR,,0.00,WeatherDisplay:10.37,2013-01-02 11:02:00,
2013-01-02 06:07:00,54.8,54.0,29.98,SSW,199,0.0,0.0,97,0.00,CLR,,0.00,WeatherDisplay:10.37,2013-01-02 11:07:00,
2013-01-02 06:12:00,54.8,54.0,29.97,SSW,199,0.0,0.0,97,0.00,CLR,,0.00,WeatherDisplay:10.37,2013-01-02 11:12:00,
2013-01-02 06:17:00,54.8,54.0,29.98,SSW,199,0.0,0.0,97,0.00,CLR,,0.00,WeatherDisplay:10.37,2013-01-02 11:17:00,
2013-01-02 06:22:00,54.8,54.0,29.98,SSW,199,0.0,0.0,97,0.00,CLR,,0.00,WeatherDisplay:10.37,2013-01-02 11:22:00,
2013-01-02 06:27:00,54.8,54.0,29.98,SSW,199,0.0,0.0,97,0.00,CLR,,0.00,WeatherDisplay:10.37,2013-01-02 11:27:00,
2013-01-02 06:32:00,54.8,54.0,29.98,SSW,199,0.0,0.0,97,0.00,CLR,,0.00,WeatherDisplay:10.37,2013-01-02 11:32:00,
2013-01-02 06:37:00,54.8,54.0,29.98,SSW,199,0.0,0.0,97,0.00,CLR,,0.00,WeatherDisplay:10.37,2013-01-02 11:37:00,
2013-01-02 06:42:00,54.9,54.1,29.98,SSW,199,0.0,0.0,97,0.00,CLR,,0.00,WeatherDisplay:10.37,2013-01-02 11:42:00,
2013-01-02 06:47:00,55.0,54.2,29.98,SSW,199,0.0,0.0,97,0.00,CLR,,0.00,WeatherDisplay:10.37,2013-01-02 11:47:00,
2013-01-02 06:52:00,55.0,54.2,29.97,SSW,199,0.0,0.0,97,0.00,CLR,,0.00,WeatherDisplay:10.37,2013-01-02 11:52:00,
2013-01-02 06:57:00,54.9,54.1,29.98,SSW,199,0.0,0.0,97,0.00,CLR,,0.00,WeatherDisplay:10.37,2013-01-02 11:57:00,
2013-01-02 07:02:00,55.0,54.2,29.98,SSW,199,0.0,0.0,97,0.00,CLR,,0.00,WeatherDisplay:10.37,2013-01-02 12:02:00,
2013-01-02 07:07:00,55.0,54.2,29.99,SSW,199,0.0,0.0,97,0.00,CLR,,0.00,WeatherDisplay:10.37,2013-01-02 12:07:00,
2013-01-02 07:12:00,55.0,54.2,29.99,SSW,199,0.0,0.0,97,0.00,CLR,,0.00,WeatherDisplay:10.37,2013-01-02 12:12:00,
2013-01-02 07:17:00,54.9,54.1,29.99,SSW,199,0.0,0.0,97,0.00,CLR,,0.00,WeatherDisplay:10.37,2013-01-02 12:17:00,
2013-01-02 07:22:00,55.0,54.2,29.99,SSW,199,0.0,0.0,97,0.00,CLR,,0.00,WeatherDisplay:10.37,2013-01-02 12:22:00,
2013-01-02 07:27:00,55.1,54.3,29.99,SSW,199,0.0,0.0,97,0.00,CLR,,0.00,WeatherDisplay:10.37,2013-01-02 12:27:00,
2013-01-02 07:32:00,55.2,54.4,29.99,SSW,199,0.0,0.0,97,0.00,CLR,,0.00,WeatherDisplay:10.37,2013-01-02 12:32:00,
2013-01-02 07:37:00,55.3,54.5,29.99,SSW,199,0.0,0.0,97,0.00,CLR,,0.00,WeatherDisplay:10.37,2013-01-02 12:37:00,
2013-01-02 07:42:00,55.4,54.6,29.99,SSW,199,0.0,0.0,97,0.00,CLR,,0.00,WeatherDisplay:10.37,2013-01-02 12:42:00,
2013-01-02 07:47:00,55.5,54.7,29.99,SSW,199,0.0,0.0,97,0.00,CLR,,0.00,WeatherDisplay:10.37,2013-01-02 12:47:00,
2013-01-02 07:52:00,55.5,54.7,29.99,SSW,199,0.0,0.0,97,0.00,CLR,,0.00,WeatherDisplay:10.37,2013-01-02 12:52:00,
2013-01-02 07:57:00,55.7,54.9,29.99,SSW,199,0.0,0.0,97,0.00,CLR,,0.00,WeatherDisplay:10.37,2013-01-02 12:57:00,
2013-01-02 08:02:00,55.7,54.9,29.99,SSW,199,0.0,0.0,97,0.00,CLR,,0.00,WeatherDisplay:10.37,2013-01-02 13:02:00,
2013-01-02 08:07:00,55.9,55.1,30.00,SSW,199,0.0,0.0,97,0.00,CLR,,0.00,WeatherDisplay:10.37,2013-01-02 13:07:00,
2013-01-02 08:12:00,56.0,55.2,30.00,SSW,199,0.0,0.0,97,0.00,CLR,,0.00,WeatherDisplay:10.37,2013-01-02 13:12:00,
2013-01-02 08:17:00,56.2,55.6,30.00,SSW,199,0.0,0.0,98,0.00,CLR,,0.00,WeatherDisplay:10.37,2013-01-02 13:17:00,
2013-01-02 08:22:00,56.7,56.1,30.00,SSW,199,0.0,0.0,98,0.00,CLR,,0.00,WeatherDisplay:10.37,2013-01-02 13:22:00,
2013-01-02 08:27:00,57.1,56.5,30.00,SSW,199,0.0,0.0,98,0.00,CLR,,0.00,WeatherDisplay:10.37,2013-01-02 13:27:00,
2013-01-02 08:32:00,57.5,56.9,30.00,SSW,199,0.0,0.0,98,0.00,CLR,,0.00,WeatherDisplay:10.37,2013-01-02 13:32:00,
2013-01-02 08:37:00,57.9,57.3,30.00,SSW,199,0.0,0.0,98,0.00,CLR,,0.00,WeatherDisplay:10.37,2013-01-02 13:37:00,
2013-01-02 08:42:00,58.4,57.8,30.00,South,181,0.0,0.0,98,0.00,CLR,,0.00,WeatherDisplay:10.37,2013-01-02 13:42:00,
2013-01-02 08:47:00,58.9,58.3,30.00,South,181,0.0,0.0,98,0.00,CLR,,0.00,WeatherDisplay:10.37,2013-01-02 13:47:00,
2013-01-02 08:52:00,59.4,58.8,30.00,South,181,0.0,0.0,98,0.00,CLR,,0.00,WeatherDisplay:10.37,2013-01-02 13:52:00,
2013-01-02 08:57:00,60.0,59.4,30.00,South,181,0.0,0.0,98,0.00,CLR,,0.00,WeatherDisplay:10.37,2013-01-02 13:57:00,
2013-01-02 09:02:00,60.7,59.8,30.00,South,181,1.1,1.1,97,0.00,CLR,,0.00,WeatherDisplay:10.37,2013-01-02 14:02:00,
2013-01-02 09:07:00,61.7,60.8,30.00,South,181,0.0,0.0,97,0.00,CLR,,0.00,WeatherDisplay:10.37,2013-01-02 14:07:00,
2013-01-02 09:12:00,62.9,61.4,30.00,South,186,1.1,0.0,95,0.00,CLR,,0.00,WeatherDisplay:10.37,2013-01-02 14:12:00,
2013-01-02 09:17:00,64.1,62.3,30.00,SSE,147,0.0,0.0,94,0.00,CLR,,0.00,WeatherDisplay:10.37,2013-01-02 14:17:00,
2013-01-02 09:22:00,65.2,62.5,30.01,West,260,6.0,6.0,91,0.00,CLR,,0.00,WeatherDisplay:10.37,2013-01-02 14:22:00,
2013-01-02 09:27:00,66.1,63.1,30.01,WSW,242,3.5,3.5,90,0.00,CLR,,0.00,WeatherDisplay:10.37,2013-01-02 14:27:00,
2013-01-02 09:32:00,67.0,63.3,30.01,SW,232,4.0,4.0,88,0.00,CLR,,0.00,WeatherDisplay:10.37,2013-01-02 14:32:00,
2013-01-02 09:37:00,67.6,63.6,30.01,WSW,257,0.0,0.0,87,0.00,CLR,,0.00,WeatherDisplay:10.37,2013-01-02 14:37:00,
2013-01-02 09:42:00,68.1,63.8,30.01,SW,235,4.0,4.0,86,0.00,CLR,,0.00,WeatherDisplay:10.37,2013-01-02 14:42:00,
2013-01-02 09:47:00,68.9,64.2,30.01,SW,217,2.3,2.3,85,0.00,CLR,,0.00,WeatherDisplay:10.37,2013-01-02 14:47:00,
2013-01-02 09:52:00,69.7,64.6,30.01,WSW,244,0.0,0.0,84,0.00,CLR,,0.00,WeatherDisplay:10.37,2013-01-02 14:52:00,
2013-01-02 09:57:00,70.4,65.0,30.01,SW,224,2.3,2.3,83,0.00,CLR,,0.00,WeatherDisplay:10.37,2013-01-02 14:57:00,
2013-01-02 10:02:00,71.0,64.9,30.01,SW,223,5.8,5.8,81,0.00,CLR,,0.00,WeatherDisplay:10.37,2013-01-02 15:02:00,
2013-01-02 10:07:00,71.7,65.2,30.01,WSW,257,1.1,1.1,80,0.00,CLR,,0.00,WeatherDisplay:10.37,2013-01-02 15:07:00,
2013-01-02 10:12:00,72.1,65.9,30.01,WSW,257,0.0,0.0,81,0.00,CLR,,0.00,WeatherDisplay:10.37,2013-01-02 15:12:00,
2013-01-02 10:17:00,72.3,65.8,30.01,West,259,3.5,3.5,80,0.00,CLR,,0.00,WeatherDisplay:10.37,2013-01-02 15:17:00,
2013-01-02 10:22:00,72.4,65.9,30.01,WSW,252,2.3,2.3,80,0.00,CLR,,0.00,WeatherDisplay:10.37,2013-01-02 15:22:00,
2013-01-02 10:27:00,72.6,66.1,30.01,SW,230,4.6,4.6,80,0.00,CLR,,0.00,WeatherDisplay:10.37,2013-01-02 15:27:00,
2013-01-02 10:32:00,72.8,66.6,30.01,SW,230,0.0,0.0,81,0.00,CLR,,0.00,WeatherDisplay:10.37,2013-01-02 15:32:00,
2013-01-02 10:37:00,73.3,67.1,30.01,SW,230,1.1,1.1,81,0.00,CLR,,0.00,WeatherDisplay:10.37,2013-01-02 15:37:00,
2013-01-02 10:42:00,73.6,67.0,30.01,West,281,0.0,0.2,80,0.00,CLR,,0.00,WeatherDisplay:10.37,2013-01-02 15:42:00,
2013-01-02 10:47:00,73.8,67.2,30.01,WSW,241,3.0,3.0,80,0.00,CLR,,0.00,WeatherDisplay:10.37,2013-01-02 15:47:00,
2013-01-02 10:52:00,73.7,67.1,30.01,WSW,241,6.9,6.9,80,0.00,CLR,,0.00,WeatherDisplay:10.37,2013-01-02 15:52:00,
2013-01-02 10:57:00,73.5,67.3,30.01,West,270,6.9,6.9,81,0.00,CLR,,0.00,WeatherDisplay:10.37,2013-01-02 15:57:00,
2013-01-02 11:02:00,73.2,67.0,30.01,SE,127,4.6,4.6,81,0.00,CLR,,0.00,WeatherDisplay:10.37,2013-01-02 16:02:00,
2013-01-02 11:07:00,72.8,67.0,30.01,West,263,3.5,3.5,82,0.00,CLR,,0.00,WeatherDisplay:10.37,2013-01-02 16:07:00,
2013-01-02 11:12:00,72.4,66.9,30.01,SW,236,3.5,3.5,83,0.00,CLR,,0.00,WeatherDisplay:10.37,2013-01-02 16:12:00,
2013-01-02 11:17:00,72.3,67.2,30.01,SE,131,1.1,0.0,84,0.00,CLR,,0.00,WeatherDisplay:10.37,2013-01-02 16:17:00,
2013-01-02 11:22:00,72.3,67.2,30.01,WSW,254,2.3,2.3,84,0.00,CLR,,0.00,WeatherDisplay:10.37,2013-01-02 16:22:00,
2013-01-02 11:27:00,72.4,67.3,30.00,SSW,211,1.1,1.1,84,0.00,CLR,,0.00,WeatherDisplay:10.37,2013-01-02 16:27:00,
2013-01-02 11:32:00,72.8,67.7,30.00,NE,50,1.1,1.1,84,0.00,CLR,,0.00,WeatherDisplay:10.37,2013-01-02 16:32:00,
2013-01-02 11:37:00,73.1,67.6,30.00,North,360,5.8,5.8,83,0.00,CLR,,0.00,WeatherDisplay:10.37,2013-01-02 16:37:00,
2013-01-02 11:42:00,73.1,67.3,30.00,SSW,194,5.8,5.8,82,0.00,CLR,,0.00,WeatherDisplay:10.37,2013-01-02 16:42:00,
2013-01-02 11:47:00,73.1,67.3,30.00,WSW,257,3.5,3.5,82,0.00,CLR,,0.00,WeatherDisplay:10.37,2013-01-02 16:47:00,
2013-01-02 11:52:00,73.0,67.5,30.00,NW,308,1.1,1.1,83,0.00,CLR,,0.00,WeatherDisplay:10.37,2013-01-02 16:52:00,
2013-01-02 11:57:00,72.7,67.2,29.99,WNW,293,3.5,3.5,83,0.00,CLR,,0.00,WeatherDisplay:10.37,2013-01-02 16:57:00,
2013-01-02 12:02:00,72.5,67.0,29.99,NW,321,5.0,5.0,83,0.00,CLR,,0.00,WeatherDisplay:10.37,2013-01-02 17:02:00,
2013-01-02 12:07:00,72.4,67.3,29.99,NE,36,2.3,0.0,84,0.00,CLR,,0.00,WeatherDisplay:10.37,2013-01-02 17:07:00,
2013-01-02 12:12:00,72.4,67.3,29.99,NNW,339,2.3,2.3,84,0.00,CLR,,0.00,WeatherDisplay:10.37,2013-01-02 17:12:00,
2013-01-02 12:17:00,72.4,67.3,29.99,WSW,238,4.6,0.0,84,0.00,CLR,,0.00,WeatherDisplay:10.37,2013-01-02 17:17:00,
2013-01-02 12:22:00,72.4,67.3,29.99,WSW,240,1.1,1.1,84,0.00,CLR,,0.00,WeatherDisplay:10.37,2013-01-02 17:22:00,
2013-01-02 12:27:00,72.4,67.3,29.98,SW,228,4.0,4.0,84,0.00,CLR,,0.00,WeatherDisplay:10.37,2013-01-02 17:27:00,
2013-01-02 12:32:00,72.5,67.4,29.98,WSW,258,2.3,2.3,84,0.00,CLR,,0.00,WeatherDisplay:10.37,2013-01-02 17:32:00,
2013-01-02 12:37:00,72.5,67.4,29.98,West,263,2.3,2.3,84,0.00,CLR,,0.00,WeatherDisplay:10.37,2013-01-02 17:37:00,
2013-01-02 12:42:00,72.5,67.4,29.98,SSE,167,3.5,0.0,84,0.00,CLR,,0.00,WeatherDisplay:10.37,2013-01-02 17:42:00,
2013-01-02 12:47:00,72.6,67.1,29.98,West,265,4.6,4.6,83,0.00,CLR,,0.00,WeatherDisplay:10.37,2013-01-02 17:47:00,
2013-01-02 12:52:00,72.6,67.1,29.98,SSE,165,2.3,2.3,83,0.00,CLR,,0.00,WeatherDisplay:10.37,2013-01-02 17:52:00,
2013-01-02 12:57:00,72.6,67.1,29.98,SW,227,3.5,3.5,83,0.00,CLR,,0.00,WeatherDisplay:10.37,2013-01-02 17:57:00,
2013-01-02 13:02:00,72.6,67.5,29.97,SW,230,1.1,1.1,84,0.00,CLR,,0.00,WeatherDisplay:10.37,2013-01-02 18:02:00,
2013-01-02 13:07:00,72.5,67.0,29.97,WSW,247,1.1,1.1,83,0.00,CLR,,0.00,WeatherDisplay:10.37,2013-01-02 18:07:00,
2013-01-02 13:12:00,72.5,67.0,29.97,SW,218,4.6,4.6,83,0.00,CLR,,0.00,WeatherDisplay:10.37,2013-01-02 18:12:00,
2013-01-02 13:17:00,72.7,67.6,29.97,SW,234,1.1,1.1,84,0.00,CLR,,0.00,WeatherDisplay:10.37,2013-01-02 18:17:00,
2013-01-02 13:22:00,72.8,67.3,29.97,SW,236,1.1,1.1,83,0.00,CLR,,0.00,WeatherDisplay:10.37,2013-01-02 18:22:00,
2013-01-02 13:27:00,72.9,67.1,29.97,West,269,3.5,3.5,82,0.00,CLR,,0.00,WeatherDisplay:10.37,2013-01-02 18:27:00,
2013-01-02 13:32:00,72.9,67.1,29.96,West,281,5.8,5.8,82,0.00,CLR,,0.00,WeatherDisplay:10.37,2013-01-02 18:32:00,
2013-01-02 13:37:00,72.9,67.4,29.96,WSW,238,1.1,1.1,83,0.00,CLR,,0.00,WeatherDisplay:10.37,2013-01-02 18:37:00,
2013-01-02 13:42:00,72.9,67.1,29.96,SSW,209,3.5,3.5,82,0.00,CLR,,0.00,WeatherDisplay:10.37,2013-01-02 18:42:00,
2013-01-02 13:47:00,73.0,67.5,29.96,West,263,1.1,1.1,83,0.00,CLR,,0.00,WeatherDisplay:10.37,2013-01-02 18:47:00,
2013-01-02 13:52:00,73.1,67.3,29.96,West,266,3.5,3.5,82,0.00,CLR,,0.00,WeatherDisplay:10.37,2013-01-02 18:52:00,
2013-01-02 13:57:00,73.3,67.5,29.95,SSW,202,6.0,6.0,82,0.00,CLR,,0.00,WeatherDisplay:10.37,2013-01-02 18:57:00,
2013-01-02 14:02:00,73.4,67.6,29.95,SSW,193,1.1,1.1,82,0.00,CLR,,0.00,WeatherDisplay:10.37,2013-01-02 19:02:00,
2013-01-02 14:07:00,73.5,67.7,29.95,SSW,193,1.1,0.0,82,0.00,CLR,,0.00,WeatherDisplay:10.37,2013-01-02 19:07:00,
2013-01-02 14:12:00,73.6,67.4,29.95,NW,319,2.3,2.3,81,0.00,CLR,,0.00,WeatherDisplay:10.37,2013-01-02 19:12:00,
2013-01-02 14:17:00,73.7,67.9,29.95,NW,325,1.1,1.1,82,0.00,CLR,,0.00,WeatherDisplay:10.37,2013-01-02 19:17:00,
2013-01-02 14:22:00,73.8,67.6,29.95,SSW,211,0.0,0.0,81,0.00,CLR,,0.00,WeatherDisplay:10.37,2013-01-02 19:22:00,
2013-01-02 14:27:00,73.8,67.6,29.95,South,188,0.0,0.0,81,0.00,CLR,,0.00,WeatherDisplay:10.37,2013-01-02 19:27:00,
2013-01-02 14:32:00,74.0,67.8,29.95,South,188,0.0,0.0,81,0.00,CLR,,0.00,WeatherDisplay:10.37,2013-01-02 19:32:00,
2013-01-02 14:37:00,74.0,67.8,29.95,West,279,0.0,0.0,81,0.00,CLR,,0.00,WeatherDisplay:10.37,2013-01-02 19:37:00,
2013-01-02 14:42:00,74.0,67.4,29.95,West,259,1.1,1.1,80,0.00,CLR,,0.00,WeatherDisplay:10.37,2013-01-02 19:42:00,
2013-01-02 14:47:00,73.9,67.3,29.95,WSW,257,1.1,1.1,80,0.00,CLR,,0.00,WeatherDisplay:10.37,2013-01-02 19:47:00,
2013-01-02 14:52:00,73.7,67.5,29.95,WSW,257,1.1,1.1,81,0.00,CLR,,0.00,WeatherDisplay:10.37,2013-01-02 19:52:00,
2013-01-02 14:57:00,73.5,67.3,29.96,NNW,343,0.0,0.1,81,0.00,CLR,,0.00,WeatherDisplay:10.37,2013-01-02 19:57:00,
2013-01-02 15:02:00,73.4,67.2,29.96,WSW,246,1.1,0.0,81,0.00,CLR,,0.00,WeatherDisplay:10.37,2013-01-02 20:02:00,
2013-01-02 15:07:00,73.2,67.4,29.96,SW,219,0.0,0.3,82,0.00,CLR,,0.00,WeatherDisplay:10.37,2013-01-02 20:07:00,
2013-01-02 15:12:00,73.1,67.6,29.96,NNW,333,3.5,3.5,83,0.00,CLR,,0.00,WeatherDisplay:10.37,2013-01-02 20:12:00,
2013-01-02 15:17:00,72.8,67.7,29.96,NNW,341,5.8,5.8,84,0.00,CLR,,0.00,WeatherDisplay:10.37,2013-01-02 20:17:00,
2013-01-02 15:22:00,72.1,67.0,29.97,NNW,348,5.8,5.8,84,0.00,CLR,,0.00,WeatherDisplay:10.37,2013-01-02 20:22:00,
2013-01-02 15:27:00,71.2,66.5,29.97,North,5,3.5,3.5,85,0.00,CLR,,0.00,WeatherDisplay:10.37,2013-01-02 20:27:00,
2013-01-02 15:32:00,70.4,66.0,29.97,North,355,1.1,1.1,86,0.00,CLR,,0.00,WeatherDisplay:10.37,2013-01-02 20:32:00,
2013-01-02 15:37:00,69.7,65.7,29.97,North,5,3.5,3.5,87,0.00,CLR,,0.00,WeatherDisplay:10.37,2013-01-02 20:37:00,
2013-01-02 15:42:00,69.3,65.6,29.98,North,360,3.0,3.0,88,0.00,CLR,,0.00,WeatherDisplay:10.37,2013-01-02 20:42:00,
2013-01-02 15:47:00,68.8,65.4,29.98,North,360,5.8,5.8,89,0.00,CLR,,0.00,WeatherDisplay:10.37,2013-01-02 20:47:00,
2013-01-02 15:52:00,68.5,65.4,29.98,North,355,4.6,4.6,90,0.00,CLR,,0.00,WeatherDisplay:10.37,2013-01-02 20:52:00,
2013-01-02 15:57:00,68.2,65.2,29.98,North,5,3.5,3.5,90,0.00,CLR,,0.00,WeatherDisplay:10.37,2013-01-02 20:57:00,
2013-01-02 16:02:00,67.9,64.9,29.98,NNW,343,4.6,4.6,90,0.00,CLR,,0.00,WeatherDisplay:10.37,2013-01-02 21:02:00,
2013-01-02 16:07:00,67.8,65.1,29.98,North,355,3.5,3.5,91,0.00,CLR,,0.00,WeatherDisplay:10.37,2013-01-02 21:07:00,
2013-01-02 16:12:00,67.7,65.0,29.98,North,5,3.5,3.5,91,0.00,CLR,,0.00,WeatherDisplay:10.37,2013-01-02 21:12:00,
2013-01-02 16:17:00,67.6,64.6,29.98,North,360,4.6,4.6,90,0.00,CLR,,0.00,WeatherDisplay:10.37,2013-01-02 21:17:00,
2013-01-02 16:22:00,67.3,63.9,29.99,NNE,17,6.9,6.9,89,0.00,CLR,,0.00,WeatherDisplay:10.37,2013-01-02 21:22:00,
2013-01-02 16:27:00,67.1,63.7,29.99,North,360,3.5,3.5,89,0.00,CLR,,0.00,WeatherDisplay:10.37,2013-01-02 21:27:00,
2013-01-02 16:32:00,66.9,63.9,29.99,North,5,3.5,3.5,90,0.00,CLR,,0.00,WeatherDisplay:10.37,2013-01-02 21:32:00,
2013-01-02 16:37:00,66.7,63.7,30.00,NNW,335,2.3,2.3,90,0.00,CLR,,0.00,WeatherDisplay:10.37,2013-01-02 21:37:00,
2013-01-02 16:42:00,66.6,63.6,30.00,NNW,333,2.3,2.3,90,0.00,CLR,,0.00,WeatherDisplay:10.37,2013-01-02 21:42:00,
2013-01-02 16:47:00,66.5,63.5,30.00,North,360,4.6,4.6,90,0.00,CLR,,0.00,WeatherDisplay:10.37,2013-01-02 21:47:00,
2013-01-02 16:52:00,66.5,63.5,30.00,North,360,1.1,1.1,90,0.00,CLR,,0.00,WeatherDisplay:10.37,2013-01-02 21:52:00,
2013-01-02 16:57:00,66.4,63.4,30.00,North,360,1.1,0.0,90,0.00,CLR,,0.00,WeatherDisplay:10.37,2013-01-02 21:57:00,
2013-01-02 17:02:00,66.3,63.3,30.00,North,11,3.0,3.0,90,0.00,CLR,,0.00,WeatherDisplay:10.37,2013-01-02 22:02:00,
2013-01-02 17:07:00,66.2,63.2,30.00,NNW,345,2.3,2.3,90,0.00,CLR,,0.00,WeatherDisplay:10.37,2013-01-02 22:07:00,
2013-01-02 17:12:00,66.1,63.1,30.01,North,360,2.3,2.3,90,0.00,CLR,,0.00,WeatherDisplay:10.37,2013-01-02 22:12:00,
2013-01-02 17:17:00,66.0,63.0,30.01,North,360,2.3,2.3,90,0.00,CLR,,0.00,WeatherDisplay:10.37,2013-01-02 22:17:00,
2013-01-02 17:22:00,65.9,62.9,30.01,NNE,17,1.1,0.0,90,0.00,CLR,,0.00,WeatherDisplay:10.37,2013-01-02 22:22:00,
2013-01-02 17:27:00,65.8,62.8,30.01,NNE,17,3.5,3.5,90,0.00,CLR,,0.00,WeatherDisplay:10.37,2013-01-02 22:27:00,
2013-01-02 17:32:00,65.7,62.7,30.01,North,9,1.1,0.0,90,0.00,CLR,,0.00,WeatherDisplay:10.37,2013-01-02 22:32:00,
2013-01-02 17:37:00,65.7,62.7,30.01,North,9,1.1,1.1,90,0.00,CLR,,0.00,WeatherDisplay:10.37,2013-01-02 22:37:00,
2013-01-02 17:42:00,65.6,62.9,30.00,North,9,0.0,0.0,91,0.00,CLR,,0.00,WeatherDisplay:10.37,2013-01-02 22:42:00,
2013-01-02 17:47:00,65.6,62.9,30.01,North,9,1.1,0.0,91,0.00,CLR,,0.00,WeatherDisplay:10.37,2013-01-02 22:47:00,
2013-01-02 17:52:00,65.5,62.8,30.01,North,9,0.0,0.0,91,0.00,CLR,,0.00,WeatherDisplay:10.37,2013-01-02 22:52:00,
2013-01-02 17:57:00,65.4,62.7,30.01,North,9,1.1,1.1,91,0.00,CLR,,0.00,WeatherDisplay:10.37,2013-01-02 22:57:00,
2013-01-02 18:02:00,65.4,62.7,30.01,North,9,0.0,0.0,91,0.00,CLR,,0.00,WeatherDisplay:10.37,2013-01-02 23:02:00,
2013-01-02 18:07:00,65.4,62.7,30.01,North,9,0.0,0.0,91,0.00,CLR,,0.00,WeatherDisplay:10.37,2013-01-02 23:07:00,
2013-01-02 18:12:00,65.3,62.6,30.01,North,9,0.0,0.0,91,0.00,CLR,,0.00,WeatherDisplay:10.37,2013-01-02 23:12:00,
2013-01-02 18:17:00,65.2,62.5,30.01,North,9,0.0,0.0,91,0.00,CLR,,0.00,WeatherDisplay:10.37,2013-01-02 23:17:00,
2013-01-02 18:22:00,65.1,62.4,30.01,North,9,0.0,0.0,91,0.00,CLR,,0.00,WeatherDisplay:10.37,2013-01-02 23:22:00,
2013-01-02 18:27:00,65.1,62.4,30.02,North,5,3.5,3.5,91,0.00,CLR,,0.00,WeatherDisplay:10.37,2013-01-02 23:27:00,
2013-01-02 18:32:00,65.0,62.3,30.02,North,5,1.1,1.1,91,0.00,CLR,,0.00,WeatherDisplay:10.37,2013-01-02 23:32:00,
2013-01-02 18:37:00,65.0,62.3,30.02,North,5,1.1,0.0,91,0.00,CLR,,0.00,WeatherDisplay:10.37,2013-01-02 23:37:00,
2013-01-02 18:42:00,65.0,62.3,30.02,North,5,1.1,0.0,91,0.00,CLR,,0.00,WeatherDisplay:10.37,2013-01-02 23:42:00,
2013-01-02 18:47:00,64.9,62.2,30.03,North,5,0.0,0.2,91,0.00,CLR,,0.00,WeatherDisplay:10.37,2013-01-02 23:47:00,
2013-01-02 18:52:00,64.9,62.2,30.02,North,5,0.0,0.0,91,0.00,CLR,,0.00,WeatherDisplay:10.37,2013-01-02 23:52:00,
2013-01-02 18:57:00,64.8,62.4,30.03,North,5,0.0,0.0,92,0.00,CLR,,0.00,WeatherDisplay:10.37,2013-01-02 23:57:00,
2013-01-02 19:02:00,64.8,62.1,30.03,North,5,0.0,0.0,91,0.00,CLR,,0.00,WeatherDisplay:10.37,2013-01-03 00:02:00,
2013-01-02 19:07:00,64.8,62.4,30.03,North,5,0.0,0.0,92,0.00,CLR,,0.00,WeatherDisplay:10.37,2013-01-03 00:07:00,
2013-01-02 19:12:00,64.7,62.0,30.03,North,5,1.1,0.0,91,0.00,CLR,,0.00,WeatherDisplay:10.37,2013-01-03 00:12:00,
2013-01-02 19:17:00,64.7,62.0,30.03,North,5,0.0,0.0,91,0.00,CLR,,0.00,WeatherDisplay:10.37,2013-01-03 00:17:00,
2013-01-02 19:22:00,64.7,62.3,30.03,North,5,1.1,0.0,92,0.00,CLR,,0.00,WeatherDisplay:10.37,2013-01-03 00:22:00,
2013-01-02 19:27:00,64.6,62.2,30.04,North,5,0.0,0.0,92,0.00,CLR,,0.00,WeatherDisplay:10.37,2013-01-03 00:27:00,
2013-01-02 19:32:00,64.6,62.2,30.03,North,5,1.1,1.1,92,0.00,CLR,,0.00,WeatherDisplay:10.37,2013-01-03 00:32:00,
2013-01-02 19:37:00,64.5,62.1,30.03,North,5,0.0,0.0,92,0.00,CLR,,0.00,WeatherDisplay:10.37,2013-01-03 00:37:00,
2013-01-02 19:42:00,64.5,62.1,30.03,North,5,0.0,0.0,92,0.00,CLR,,0.00,WeatherDisplay:10.37,2013-01-03 00:42:00,
2013-01-02 19:47:00,64.5,62.1,30.04,North,5,0.0,0.0,92,0.00,CLR,,0.00,WeatherDisplay:10.37,2013-01-03 00:47:00,
2013-01-02 19:52:00,64.4,62.0,30.04,North,5,0.0,0.0,92,0.00,CLR,,0.00,WeatherDisplay:10.37,2013-01-03 00:52:00,
2013-01-02 19:57:00,64.3,62.2,30.04,North,5,0.0,0.0,93,0.00,CLR,,0.00,WeatherDisplay:10.37,2013-01-03 00:57:00,
2013-01-02 20:02:00,64.3,62.2,30.03,North,5,0.0,0.0,93,0.00,CLR,,0.00,WeatherDisplay:10.37,2013-01-03 01:02:00,
2013-01-02 20:07:00,64.1,62.0,30.03,North,5,0.0,0.0,93,0.00,CLR,,0.00,WeatherDisplay:10.37,2013-01-03 01:07:00,
2013-01-02 20:12:00,64.0,61.9,30.03,North,5,0.0,0.0,93,0.00,CLR,,0.00,WeatherDisplay:10.37,2013-01-03 01:12:00,
2013-01-02 20:17:00,63.9,61.8,30.04,North,5,0.0,0.0,93,0.00,CLR,,0.00,WeatherDisplay:10.37,2013-01-03 01:17:00,
2013-01-02 20:22:00,63.9,61.8,30.04,North,5,0.0,0.0,93,0.00,CLR,,0.00,WeatherDisplay:10.37,2013-01-03 01:22:00,
2013-01-02 20:27:00,63.9,61.8,30.03,North,5,0.0,0.0,93,0.00,CLR,,0.00,WeatherDisplay:10.37,2013-01-03 01:27:00,
2013-01-02 20:32:00,63.8,61.7,30.04,North,5,0.0,0.0,93,0.00,CLR,,0.00,WeatherDisplay:10.37,2013-01-03 01:32:00,
2013-01-02 20:37:00,63.8,61.7,30.04,North,5,0.0,0.0,93,0.00,CLR,,0.00,WeatherDisplay:10.37,2013-01-03 01:37:00,
2013-01-02 20:42:00,63.8,61.7,30.04,North,5,0.0,0.0,93,0.00,CLR,,0.00,WeatherDisplay:10.37,2013-01-03 01:42:00,
2013-01-02 20:47:00,63.8,62.0,30.05,North,5,0.0,0.0,94,0.00,CLR,,0.00,WeatherDisplay:10.37,2013-01-03 01:47:00,
2013-01-02 20:52:00,63.7,61.6,30.05,North,5,0.0,0.0,93,0.00,CLR,,0.00,WeatherDisplay:10.37,2013-01-03 01:52:00,
2013-01-02 20:57:00,63.7,61.9,30.05,North,5,0.0,0.0,94,0.00,CLR,,0.00,WeatherDisplay:10.37,2013-01-03 01:57:00,
2013-01-02 21:02:00,63.7,61.9,30.05,North,5,0.0,0.0,94,0.00,CLR,,0.00,WeatherDisplay:10.37,2013-01-03 02:02:00,
2013-01-02 21:07:00,63.8,62.0,30.05,North,5,0.0,0.0,94,0.00,CLR,,0.00,WeatherDisplay:10.37,2013-01-03 02:07:00,
2013-01-02 21:12:00,63.7,61.9,30.05,North,5,0.0,0.0,94,0.00,CLR,,0.00,WeatherDisplay:10.37,2013-01-03 02:12:00,
2013-01-02 21:17:00,63.8,62.0,30.06,North,5,0.0,0.0,94,0.00,CLR,,0.00,WeatherDisplay:10.37,2013-01-03 02:17:00,
2013-01-02 21:22:00,63.9,62.1,30.06,North,5,0.0,0.0,94,0.00,CLR,,0.00,WeatherDisplay:10.37,2013-01-03 02:22:00,
2013-01-02 21:27:00,63.9,62.1,30.06,North,5,0.0,0.0,94,0.00,CLR,,0.00,WeatherDisplay:10.37,2013-01-03 02:27:00,
2013-01-02 21:32:00,63.9,62.1,30.06,North,5,0.0,0.0,94,0.00,CLR,,0.00,WeatherDisplay:10.37,2013-01-03 02:32:00,
2013-01-02 21:37:00,63.9,62.1,30.06,North,5,0.0,0.0,94,0.00,CLR,,0.00,WeatherDisplay:10.37,2013-01-03 02:37:00,
2013-01-02 21:42:00,64.0,62.2,30.06,North,5,0.0,0.0,94,0.00,CLR,,0.00,WeatherDisplay:10.37,2013-01-03 02:42:00,
2013-01-02 21:47:00,64.0,62.2,30.06,North,5,0.0,0.0,94,0.00,CLR,,0.00,WeatherDisplay:10.37,2013-01-03 02:47:00,
2013-01-02 21:52:00,64.0,62.2,30.06,North,5,0.0,0.0,94,0.00,CLR,,0.00,WeatherDisplay:10.37,2013-01-03 02:52:00,
2013-01-02 21:57:00,64.0,62.2,30.06,North,5,0.0,0.0,94,0.00,CLR,,0.00,WeatherDisplay:10.37,2013-01-03 02:57:00,
2013-01-02 22:02:00,64.0,62.2,30.06,North,5,0.0,0.0,94,0.00,CLR,,0.00,WeatherDisplay:10.37,2013-01-03 03:02:00,
2013-01-02 22:07:00,64.0,62.2,30.06,North,5,0.0,0.0,94,0.00,CLR,,0.00,WeatherDisplay:10.37,2013-01-03 03:07:00,
2013-01-02 22:12:00,63.9,62.1,30.06,North,5,0.0,0.0,94,0.02,RA,,0.03,WeatherDisplay:10.37,2013-01-03 03:12:00,
2013-01-02 22:17:00,63.9,62.1,30.06,North,5,0.0,0.0,94,0.05,RA,,0.05,WeatherDisplay:10.37,2013-01-03 03:17:00,
2013-01-02 22:22:00,63.8,62.0,30.06,North,5,0.0,0.0,94,0.05,RA,,0.05,WeatherDisplay:10.37,2013-01-03 03:22:00,
2013-01-02 22:27:00,63.7,61.9,30.06,North,5,0.0,0.0,94,0.05,CLR,,0.05,WeatherDisplay:10.37,2013-01-03 03:27:00,
2013-01-02 22:34:00,63.6,62.1,30.06,North,5,0.0,0.0,95,0.06,RA,,0.06,WeatherDisplay:10.37,2013-01-03 03:34:00,
2013-01-02 22:39:00,63.4,61.9,30.06,North,5,0.0,0.0,95,0.06,RA,,0.06,WeatherDisplay:10.37,2013-01-03 03:39:00,
2013-01-02 22:45:00,63.2,61.7,30.06,North,5,0.0,0.0,95,0.06,CLR,,0.06,WeatherDisplay:10.37,2013-01-03 03:45:00,
2013-01-02 22:50:00,63.0,61.5,30.06,North,5,0.0,0.0,95,0.06,CLR,,0.06,WeatherDisplay:10.37,2013-01-03 03:50:00,
2013-01-02 22:55:00,62.9,61.4,30.06,North,5,0.0,0.0,95,0.06,CLR,,0.06,WeatherDisplay:10.37,2013-01-03 03:55:00,
2013-01-02 23:00:00,62.6,61.1,30.06,North,5,0.0,0.0,95,0.06,CLR,,0.06,WeatherDisplay:10.37,2013-01-03 04:00:00,
2013-01-02 23:05:00,62.5,61.0,30.06,North,5,0.0,0.0,95,0.06,CLR,,0.06,WeatherDisplay:10.37,2013-01-03 04:05:00,
2013-01-02 23:10:00,62.4,61.2,30.06,North,5,0.0,0.0,96,0.06,CLR,,0.06,WeatherDisplay:10.37,2013-01-03 04:10:00,
2013-01-02 23:15:00,62.2,61.0,30.05,North,5,0.0,0.0,96,0.01,CLR,,0.06,WeatherDisplay:10.37,2013-01-03 04:15:00,
2013-01-02 23:20:00,62.1,60.9,30.05,North,5,0.0,0.0,96,0.01,CLR,,0.06,WeatherDisplay:10.37,2013-01-03 04:20:00,
2013-01-02 23:25:00,62.1,60.9,30.05,North,5,0.0,0.0,96,0.01,CLR,,0.06,WeatherDisplay:10.37,2013-01-03 04:25:00,
2013-01-02 23:30:00,62.0,60.8,30.05,North,5,0.0,0.0,96,0.01,CLR,,0.06,WeatherDisplay:10.37,2013-01-03 04:30:00,
2013-01-02 23:35:00,61.9,60.7,30.05,North,5,0.0,0.0,96,0.00,CLR,,0.06,WeatherDisplay:10.37,2013-01-03 04:35:00,
2013-01-02 23:40:00,61.9,60.7,30.05,North,5,0.0,0.0,96,0.00,CLR,,0.06,WeatherDisplay:10.37,2013-01-03 04:40:00,
2013-01-02 23:45:00,61.8,60.6,30.05,North,5,0.0,0.0,96,0.00,CLR,,0.06,WeatherDisplay:10.37,2013-01-03 04:45:00,
2013-01-02 23:50:00,61.8,60.9,30.06,North,5,0.0,0.0,97,0.00,CLR,,0.06,WeatherDisplay:10.37,2013-01-03 04:50:00,
2013-01-02 23:55:00,61.8,60.9,30.06,North,5,0.0,0.0,97,0.00,CLR,,0.06,WeatherDisplay:10.37,2013-01-03 04:55:00,